Theta_e
343 343 345 346 347 345 346 346 348 349 349 349 351 351 348 352 354 355 355 359 361 362 364 364 364 364 363 362 362 361 360 359 359 358 358 357 355 355 354 354 357 359 359 358 359 360 363 367 365 365 366 366 366 370 376 371 371 369 373 374 368 369 362
340 343 344 346 346 346 348 348 350 349 349 351 350 351 351 352 352 353 357 363 362 364 364 364 365 365 364 363 362 363 362 360 360 361 359 358 358 357 356 356 355 358 361 358 360 362 365 362 366 367 366 366 364 368 369 372 373 372 367 368 369 371 368
340 341 344 344 346 345 348 348 348 348 349 350 350 349 349 353 353 356 360 360 363 365 367 365 367 364 365 364 363 364 363 360 359 359 357 354 357 354 356 358 356 355 356 359 362 360 361 365 364 365 365 365 362 364 368 369 370 370 369 373 368 364 370
339 340 341 345 347 348 348 348 348 348 349 349 350 351 352 356 356 357 360 362 362 365 364 366 365 362 364 365 363 364 363 362 360 358 356 354 354 354 354 355 358 356 354 355 356 358 357 362 363 364 365 363 363 363 364 363 363 366 368 372 369 365 367
338 340 343 343 347 348 349 349 352 353 351 349 351 351 349 353 355 358 358 358 357 362 364 363 365 363 363 363 361 361 362 362 360 358 358 355 356 356 354 352 354 354 353 354 356 357 360 361 360 363 363 365 362 363 363 363 363 364 366 367 366 365 366
334 337 339 342 344 345 348 347 351 351 350 351 353 353 351 351 354 352 355 357 360 357 360 363 361 362 362 362 360 359 363 364 363 362 359 357 355 352 352 353 351 353 350 352 352 354 357 359 360 360 360 359 358 357 358 360 360 360 363 365 365 362 359
333 336 337 340 342 343 346 350 352 349 350 352 353 354 356 352 351 354 354 355 357 356 358 358 356 359 363 361 360 360 362 362 363 360 358 356 355 355 354 354 355 351 351 353 352 353 354 358 360 361 359 358 359 356 358 361 359 360 361 364 364 364 363
332 333 336 339 340 341 344 347 349 350 352 351 353 352 352 353 356 357 355 352 353 355 360 361 361 358 361 362 360 359 360 360 360 361 359 355 354 355 353 354 354 354 352 349 352 353 351 357 357 359 358 358 358 359 356 359 362 357 358 360 361 362 359
332 333 334 336 337 338 340 344 346 349 350 349 353 352 356 353 354 352 353 356 357 355 357 356 355 357 362 361 361 360 359 359 360 360 358 354 351 351 350 352 354 355 353 349 349 353 353 352 354 357 359 359 359 360 358 361 360 360 359 359 360 361 360
329 330 333 334 336 336 338 339 342 344 346 350 351 350 349 352 356 355 352 354 356 357 358 359 356 357 359 360 361 360 359 359 357 357 356 352 351 350 349 348 350 355 354 351 348 347 353 353 353 354 359 358 358 359 360 359 359 360 359 358 359 360 362
328 329 330 331 333 334 335 336 337 340 342 347 350 351 353 353 352 352 352 354 354 356 357 354 354 359 361 360 359 358 359 358 356 355 355 354 351 350 348 346 346 349 352 351 348 346 349 353 354 356 357 355 358 359 360 360 361 361 358 358 359 360 359
326 328 327 330 331 331 332 334 336 338 340 342 344 347 353 350 352 352 351 354 357 355 357 361 362 354 357 356 357 359 357 357 356 354 355 353 352 350 349 348 345 345 349 351 349 347 345 349 351 351 355 358 358 359 359 361 362 362 361 357 357 357 358
325 325 325 326 328 328 330 332 334 336 338 338 339 341 343 347 352 350 352 355 356 355 356 356 356 358 353 356 357 361 358 357 357 355 354 354 353 351 350 348 346 345 345 349 350 348 345 345 349 352 352 356 358 357 359 359 359 363 363 361 360 357 358
326 323 324 324 325 325 326 329 331 333 334 335 336 339 341 343 345 348 353 352 353 351 352 356 356 356 357 361 359 359 358 358 357 357 357 356 359 355 350 349 349 347 347 348 349 347 346 344 344 349 352 353 355 357 358 359 359 362 363 363 361 357 356
323 322 322 322 323 324 324 324 328 331 331 332 334 335 337 339 342 348 350 352 352 353 353 354 355 353 352 356 357 362 360 359 359 358 359 359 363 359 354 350 351 351 350 350 348 347 347 345 343 346 348 351 354 356 354 351 354 357 360 361 362 360 354
322 322 322 322 323 323 324 324 325 328 331 332 332 332 333 336 339 341 345 349 353 353 355 357 353 353 352 352 356 357 361 364 366 362 363 362 364 365 360 355 353 350 350 351 349 352 352 350 346 344 345 348 351 354 352 349 348 354 348 354 360 360 354
321 321 322 324 324 324 325 325 325 326 328 330 331 331 332 334 337 339 342 344 348 351 352 353 352 353 351 352 354 358 361 362 364 364 366 366 364 364 366 361 357 355 358 356 354 356 360 354 349 346 345 345 348 350 349 347 346 343 336 338 346 359 359
320 322 322 323 325 325 325 325 326 326 326 327 329 331 332 334 335 337 338 342 345 349 352 351 354 353 353 354 355 359 360 360 363 363 364 367 366 366 366 364 361 360 360 356 355 360 355 353 353 354 348 346 346 346 346 347 345 332 333 335 336 347 359
320 321 322 323 323 325 325 325 326 327 327 328 328 330 332 333 334 334 336 339 343 348 350 353 353 353 356 357 356 354 357 362 361 362 363 365 367 367 367 367 364 361 357 355 356 357 360 361 356 356 355 351 352 347 347 347 339 329 330 333 333 335 348
319 319 321 323 323 323 324 325 327 327 329 329 330 332 333 335 335 335 336 338 343 346 347 348 351 353 352 353 354 354 353 356 361 362 363 364 366 368 368 364 365 361 358 357 359 359 358 358 359 358 362 359 356 357 352 350 342 326 327 329 330 332 340
318 319 319 320 322 322 323 324 326 327 328 328 329 330 330 332 335 336 338 339 340 342 343 344 344 345 347 351 353 354 355 355 354 359 364 362 357 362 365 367 365 362 359 357 357 358 359 358 360 360 361 359 359 358 354 352 337 325 324 325 326 329 336
318 318 318 319 320 322 322 322 323 325 326 329 327 328 329 330 332 334 335 339 337 338 341 341 342 341 343 345 349 349 352 355 354 355 354 357 355 355 355 358 365 362 361 360 357 358 359 361 360 359 359 360 360 359 358 356 335 324 322 321 323 327 348
318 318 318 319 319 320 322 323 323 323 325 328 326 326 329 331 333 333 335 337 337 338 338 339 340 340 340 341 343 345 348 352 354 354 353 355 354 353 353 355 355 363 363 358 358 357 357 358 358 361 359 360 361 359 359 359 343 323 319 318 320 328 353
318 318 318 318 320 320 321 322 323 323 322 323 324 324 328 330 333 334 334 335 336 337 336 336 336 339 339 339 340 341 344 348 351 353 355 356 352 352 354 356 358 359 362 361 359 358 357 358 359 360 361 360 359 359 359 359 349 322 318 316 317 333 354
317 317 317 317 318 318 318 320 322 322 322 323 322 323 325 327 331 332 332 333 334 335 335 335 335 336 337 339 340 342 342 347 351 352 353 354 354 353 352 351 353 357 356 355 357 360 361 360 360 358 360 358 359 359 358 359 350 322 319 316 315 331 357
315 316 317 317 318 318 319 322 321 321 319 320 322 323 325 323 324 329 329 330 333 333 332 334 335 336 339 339 339 340 343 345 350 352 351 351 353 356 356 356 358 358 359 360 360 360 361 361 361 358 356 357 358 358 358 358 360 353 317 316 314 319 355
315 316 316 316 317 320 318 318 318 318 318 321 322 322 323 322 323 324 328 329 331 331 332 334 337 338 339 341 342 341 342 346 348 349 349 351 353 353 354 357 355 357 358 356 357 357 357 359 362 361 361 360 362 361 359 358 358 363 317 315 313 314 326
315 315 316 318 318 318 317 317 318 318 318 320 320 321 322 323 323 325 326 327 328 330 331 334 336 337 338 339 340 342 345 345 346 348 348 351 351 350 350 350 355 356 354 356 357 354 354 355 357 359 359 360 359 361 361 362 355 360 326 315 313 312 314
314 314 314 315 316 316 316 316 316 316 318 318 319 320 322 323 325 325 326 324 328 330 332 333 334 337 337 338 339 340 341 342 343 343 344 349 351 350 350 352 351 353 354 356 355 355 357 357 355 358 357 358 359 357 359 362 363 340 355 316 311 311 311
315 315 314 314 314 315 315 315 316 316 317 318 321 321 323 324 324 325 325 326 329 330 332 333 334 336 336 337 339 340 341 343 343 344 344 345 346 348 350 350 351 351 352 353 354 354 354 356 358 356 355 355 355 356 357 361 362 349 334 342 311 311 309
314 314 314 314 313 316 316 315 315 315 316 318 320 322 323 324 323 325 325 327 329 329 329 331 332 333 333 334 336 337 338 340 341 347 348 348 346 346 348 349 351 352 352 353 352 353 351 354 356 355 355 354 355 356 357 359 360 361 349 329 322 311 310
315 316 315 315 315 316 316 315 315 315 316 318 320 321 324 323 323 323 325 327 328 328 327 329 331 332 332 333 334 335 336 336 337 340 342 344 344 346 348 348 348 352 353 350 351 352 351 352 355 354 355 354 354 355 356 358 360 360 365 351 338 324 313
314 315 315 315 316 316 316 316 315 316 317 318 321 321 321 322 322 323 325 326 325 325 327 328 329 330 331 331 331 333 334 335 335 336 339 341 341 344 348 349 349 349 349 351 350 350 351 351 352 354 351 353 355 356 357 358 358 359 363 370 364 356 342
313 313 315 316 316 316 316 316 316 316 317 317 320 321 322 322 323 323 323 323 325 325 327 327 327 328 329 328 329 330 332 333 336 337 336 338 342 344 347 348 346 345 347 349 348 348 348 347 349 350 352 353 356 358 358 357 361 357 359 358 360 360 365
312 312 313 314 314 316 315 316 316 317 317 318 319 320 321 321 322 324 325 325 325 326 326 326 329 330 329 330 330 330 333 334 337 337 337 337 340 340 342 344 345 344 344 346 348 350 352 348 349 351 351 353 355 354 350 351 351 350 333 343 327 345 355
311 311 312 313 314 314 314 315 316 316 317 318 319 319 319 320 321 323 324 326 326 326 325 326 328 328 328 328 328 330 330 332 333 334 333 333 334 337 339 342 327 337 344 344 341 332 322 320 343 349 350 349 350 353 350 354 357 336 318 317 317 315 314
310 310 310 312 312 313 313 314 315 316 316 317 319 318 319 320 321 322 323 325 326 326 327 327 327 327 328 327 326 327 330 331 330 330 334 336 335 335 336 337 341 320 315 316 321 316 311 309 310 310 313 333 343 343 330 326 319 311 309 309 310 310 309
310 310 310 311 311 312 312 313 314 315 315 316 317 317 319 318 319 321 321 323 324 326 327 327 327 326 325 327 327 327 330 330 332 332 331 332 334 336 336 336 336 339 323 310 313 312 307 304 304 303 305 307 314 328 343 330 320 313 310 308 306 306 305
Wind_Speed
18 16 15 14 12 15 16 17 18 16 15 16 13 15 18 15 13 15 16 17 17 17 17 16 16 14 15 13 13 13 12 11 10 10 9 9 8 8 8 8 8 7 6 6 6 5 5 5 6 7 7 6 6 5 5 5 4 5 3 3 4 2 5
11 10 10 15 19 16 16 15 15 15 14 12 14 19 16 16 16 17 16 16 17 17 17 17 16 14 14 14 13 13 13 13 12 9 9 8 8 8 8 8 7 7 6 6 5 6 6 7 6 6 6 7 6 6 6 6 6 5 5 6 5 4 0
7 6 6 4 8 13 14 12 14 12 11 15 18 18 18 18 18 17 14 16 17 16 16 16 16 15 15 14 14 14 14 13 13 12 12 10 11 11 9 8 8 8 8 7 6 6 7 7 7 6 6 6 7 7 6 6 6 6 5 6 5 5 5
8 5 4 7 9 8 12 14 14 14 14 11 12 14 14 14 14 12 14 14 16 16 17 16 16 16 15 15 14 14 14 14 13 13 13 11 11 10 9 9 8 8 8 8 8 6 6 7 7 6 6 6 6 6 7 6 7 6 6 5 5 4 6
7 6 5 3 6 9 6 5 6 7 8 9 10 12 17 16 15 10 13 16 17 16 16 17 15 15 14 15 13 12 14 15 14 13 12 11 10 10 10 11 10 9 8 9 8 8 6 7 8 7 7 6 7 6 6 6 6 6 6 6 5 5 4
11 10 10 8 10 4 13 10 8 6 7 6 8 8 11 15 15 18 17 15 15 17 17 17 18 16 16 16 14 14 14 13 13 12 12 12 11 11 11 11 10 11 11 10 9 9 9 8 8 9 9 8 7 7 8 7 7 7 7 6 6 5 5
11 11 9 9 11 12 6 10 16 13 6 6 9 9 8 13 15 16 14 14 16 17 18 19 18 17 15 15 15 15 15 15 14 14 13 13 13 12 11 11 10 10 10 9 9 9 10 9 9 8 9 8 8 9 7 7 7 7 6 6 6 6 6
11 10 11 9 9 11 10 13 9 10 9 12 11 13 12 8 6 5 8 13 15 17 15 16 19 16 17 15 16 16 16 16 14 14 13 14 13 13 12 12 11 11 11 11 11 10 10 10 10 9 9 9 9 8 8 7 7 7 7 7 7 7 7
11 11 11 11 13 12 13 14 15 9 6 10 13 12 12 11 8 7 7 5 8 9 11 17 20 19 16 17 15 17 16 15 15 14 15 15 14 15 14 13 13 12 12 12 11 10 10 10 10 9 10 9 9 9 8 7 9 8 7 7 8 8 8
12 12 13 13 12 12 13 13 14 14 13 6 7 5 2 3 4 6 3 5 7 10 16 17 19 18 18 16 16 18 17 16 15 16 16 15 14 15 15 14 14 13 13 13 11 12 11 10 11 11 9 10 10 10 9 9 9 9 9 9 9 8 8
10 12 13 14 14 15 15 16 16 14 13 12 10 5 2 1 2 4 6 6 6 9 15 20 15 8 12 14 17 17 16 17 16 16 16 16 14 16 16 15 14 13 14 13 13 12 12 11 10 10 10 11 11 11 10 10 10 10 10 10 9 10 9
11 12 13 14 14 16 16 14 13 14 14 12 12 9 3 5 5 5 4 5 5 10 10 12 1 9 9 14 17 16 17 16 16 17 17 17 16 16 16 15 14 14 14 13 14 13 13 13 12 11 11 11 12 12 11 10 10 10 11 11 11 10 10
11 12 12 14 14 14 14 15 15 14 14 13 13 12 11 7 2 6 5 5 2 3 10 10 7 4 7 12 13 14 15 16 16 15 16 16 15 14 14 14 15 15 15 14 14 14 13 13 13 12 12 12 12 12 12 11 11 10 10 11 10 10 10
12 13 14 14 16 17 16 15 15 15 15 15 13 12 11 11 11 8 0 3 2 3 5 7 10 10 1 4 5 12 13 15 16 15 14 14 13 13 14 14 14 14 13 13 14 14 15 14 14 13 12 12 13 12 11 11 12 11 11 11 11 11 11
12 13 14 15 14 14 15 15 15 15 15 14 14 14 12 11 11 10 9 9 6 2 5 6 9 10 9 5 4 7 10 13 13 13 13 13 12 13 13 13 13 12 12 12 12 13 14 14 14 14 14 13 13 13 12 12 12 11 11 11 12 11 11
12 13 14 14 14 14 14 14 14 14 14 14 15 14 13 12 11 12 11 11 4 3 1 4 8 10 8 8 7 8 10 9 9 12 13 12 12 12 13 14 14 14 14 13 13 11 10 11 12 13 14 14 13 13 12 12 11 11 15 12 10 11 11
12 12 13 13 13 13 12 13 14 14 14 15 15 15 12 11 11 11 12 11 11 10 9 7 7 8 11 9 10 9 9 10 10 10 10 11 12 12 13 13 13 13 12 12 12 11 10 11 13 13 13 14 14 14 13 12 11 15 17 16 14 11 11
11 11 12 12 12 12 12 12 14 14 14 15 15 15 14 12 12 12 12 12 12 11 12 10 6 5 7 11 10 8 8 9 9 10 10 10 12 12 13 13 13 12 12 13 14 12 13 14 13 11 13 13 14 14 14 13 13 15 18 18 17 14 11
11 11 12 12 12 12 12 12 12 12 12 12 13 13 13 12 12 12 12 12 12 10 10 10 7 7 6 5 8 11 11 10 10 10 9 9 11 12 12 13 13 13 14 15 14 13 13 12 13 14 13 13 12 13 13 13 15 16 19 19 19 19 16
10 11 11 11 11 12 12 11 11 11 10 10 11 11 11 11 11 11 10 10 10 11 9 11 11 10 9 8 6 5 9 13 12 10 8 9 10 10 11 13 13 14 14 13 13 13 13 15 14 13 12 13 13 12 13 14 11 18 19 20 20 20 16
9 10 10 10 10 11 11 11 11 11 11 11 11 10 10 11 12 11 10 10 10 10 9 9 10 10 12 9 7 6 3 5 10 11 10 4 9 8 7 9 12 14 12 13 14 14 13 14 14 13 13 14 13 13 14 14 14 16 19 20 21 21 16
9 9 10 9 9 9 10 11 11 11 10 10 11 11 10 11 11 11 11 10 10 9 8 9 9 10 10 11 8 8 8 6 3 4 9 1 6 7 10 12 10 11 11 11 13 13 13 12 13 14 14 14 14 14 14 14 15 16 17 18 19 19 11
8 8 8 9 9 9 9 10 10 10 10 9 10 11 10 10 10 11 11 10 9 8 9 9 10 11 11 10 11 11 10 10 7 2 1 1 3 5 6 9 12 11 9 12 12 12 13 13 13 11 13 14 14 14 13 13 12 16 18 18 18 13 9
6 7 8 8 7 8 9 9 9 9 9 10 10 10 9 9 9 9 9 10 9 9 9 9 10 10 10 9 10 11 11 10 9 7 3 3 6 8 8 9 8 9 8 9 11 11 12 11 11 12 12 14 14 14 14 14 13 16 17 18 18 16 11
6 8 7 8 8 9 10 9 8 9 9 9 10 11 10 10 9 9 10 9 10 10 9 9 10 11 10 9 8 9 10 10 9 9 6 5 5 6 8 8 7 5 4 10 12 11 10 10 10 11 11 13 14 14 15 14 13 16 17 19 19 17 10
7 7 8 8 9 10 9 8 8 8 11 10 10 11 9 10 9 10 10 11 9 10 10 10 10 10 10 10 9 8 9 10 10 10 8 8 7 7 7 7 7 6 5 7 9 10 10 9 10 11 11 12 13 13 16 15 13 12 19 20 20 21 13
7 7 8 8 10 10 8 8 8 9 11 9 9 9 9 10 9 9 9 10 9 10 10 10 10 9 10 10 9 9 8 7 9 10 10 8 8 6 6 6 5 5 4 7 8 9 11 13 10 10 11 10 10 10 12 12 13 11 17 18 20 21 17
8 8 8 9 9 8 8 8 9 10 10 10 10 10 9 9 9 9 9 9 9 10 9 10 9 9 9 9 10 10 9 7 6 8 8 8 7 7 6 6 7 6 7 7 9 12 13 12 12 11 10 9 12 12 12 12 11 12 13 19 20 20 22
7 8 9 10 9 9 9 9 9 9 10 10 10 10 9 10 10 9 9 9 9 9 9 9 9 9 9 9 9 10 10 10 11 8 6 6 6 7 6 5 7 8 7 8 10 12 13 13 13 13 11 10 11 13 12 12 11 12 10 13 17 19 21
7 7 8 9 10 10 11 10 9 10 10 10 9 9 9 9 10 10 10 10 8 9 9 9 9 8 8 8 8 8 10 10 9 9 10 10 8 7 6 6 5 8 8 8 9 9 11 11 11 12 12 13 12 13 13 10 11 12 16 13 17 17 19
8 8 8 9 10 10 10 10 12 11 11 9 9 9 9 9 10 11 11 10 9 9 9 9 9 8 9 9 9 8 8 10 10 8 8 10 9 7 7 7 7 6 7 7 7 8 11 10 10 10 10 11 11 12 12 11 11 12 13 18 16 18 18
10 9 9 9 8 9 11 12 12 12 12 11 10 10 9 9 9 11 11 10 10 10 10 9 8 8 9 10 9 9 9 9 9 9 10 9 7 8 7 8 7 6 5 6 7 8 9 10 10 10 10 11 11 11 12 12 10 11 8 8 12 13 18
11 11 11 11 10 10 9 10 11 12 12 12 11 10 10 10 10 10 10 10 11 11 9 9 9 9 9 9 9 10 9 10 8 9 9 9 8 8 8 6 7 8 7 6 6 7 7 9 8 8 11 11 11 11 11 11 11 9 8 1 0 4 6
10 12 12 12 12 11 10 9 10 12 12 12 11 10 10 10 10 11 11 11 11 12 11 11 10 10 9 10 10 10 10 9 11 10 8 8 8 7 6 6 8 7 6 7 7 8 9 10 9 8 9 9 9 8 8 9 6 7 6 5 6 7 5
11 12 12 13 13 12 11 10 10 11 12 12 11 11 11 11 11 11 12 11 11 11 11 11 11 10 10 10 9 9 9 9 8 8 8 8 8 8 8 7 7 6 8 10 8 7 8 9 10 10 10 9 7 7 9 8 2 6 7 1 2 4 7
10 12 13 13 12 13 13 13 12 11 11 11 11 11 12 12 11 11 11 11 11 11 11 11 11 11 10 9 9 9 9 8 7 7 8 8 8 8 8 7 5 5 8 9 11 15 14 7 9 10 9 11 10 8 9 7 5 1 4 7 10 7 5
11 11 12 13 14 14 14 13 13 13 13 12 11 11 12 12 12 12 12 11 11 11 12 12 11 10 10 9 9 8 8 8 9 9 8 7 8 8 9 9 8 6 9 11 12 12 15 17 18 17 13 8 10 11 7 5 8 12 12 10 12 12 10
11 12 12 12 12 13 15 15 14 14 13 11 11 12 11 12 12 12 12 11 12 12 12 12 12 12 11 10 9 8 8 8 8 9 9 8 8 8 8 9 9 8 7 12 12 12 13 14 15 15 14 15 12 9 10 10 10 12 12 12 9 10 10
Wind_Direction
171 173 178 186 211 204 197 192 195 191 199 198 197 207 199 191 189 179 181 177 179 180 183 181 183 183 185 186 186 184 187 185 187 191 197 199 200 200 195 196 195 202 200 196 200 193 185 194 181 188 176 183 190 173 177 186 188 183 211 218 224 237 167
55 94 145 177 176 201 198 188 191 191 195 204 209 200 201 187 197 189 180 176 180 182 181 181 183 184 185 186 186 185 186 187 187 189 196 194 201 201 202 198 199 197 200 214 193 193 186 187 191 185 189 182 195 183 185 187 196 198 178 207 220 223 256
84 102 151 218 194 182 189 190 189 190 198 203 201 205 197 196 193 189 177 176 180 184 182 182 184 184 185 186 187 186 187 189 187 191 193 196 194 200 200 196 201 198 201 205 207 195 186 190 186 187 197 198 197 188 197 191 199 193 202 214 187 215 209
46 41 92 167 214 199 195 193 190 193 202 209 213 200 204 194 182 189 168 178 183 184 186 184 186 186 186 186 187 186 189 190 193 191 197 199 194 201 195 200 200 208 198 201 204 207 192 181 185 192 195 201 211 195 199 204 201 205 212 212 214 185 220
46 66 67 66 159 191 202 194 202 182 201 203 218 215 200 204 186 167 185 179 190 186 187 186 188 189 186 187 190 189 189 191 193 195 197 199 196 198 202 203 198 208 204 200 200 197 208 189 193 191 189 201 201 205 206 204 214 206 214 212 231 217 200
29 36 40 31 15 156 173 189 203 203 212 218 235 228 216 209 192 188 190 184 189 192 193 190 198 188 190 189 191 187 186 191 192 194 198 195 199 198 200 206 204 202 205 206 198 201 195 209 200 191 195 193 207 207 203 202 211 209 204 214 226 230 228
28 26 29 21 20 25 35 161 159 176 193 228 231 254 268 210 193 196 193 191 192 201 200 197 197 191 190 188 191 184 188 188 188 194 193 200 196 203 200 200 209 204 210 200 207 201 198 201 208 198 199 204 195 214 207 204 210 212 206 208 213 230 244
35 34 28 26 34 26 41 52 90 148 155 150 171 228 223 225 178 188 208 204 200 208 203 201 202 200 187 191 186 190 186 188 188 190 194 199 197 202 201 204 199 205 203 207 202 208 205 198 202 204 203 202 204 211 210 199 208 220 217 209 213 221 214
38 33 29 33 31 31 33 41 45 79 189 168 173 200 193 198 188 194 214 249 259 232 219 213 213 190 189 187 187 188 185 190 186 189 194 198 200 200 203 201 202 198 204 209 203 200 212 203 203 202 202 208 202 204 211 207 202 212 223 218 212 219 232
41 30 35 35 35 37 35 36 39 37 44 84 162 108 39 233 175 148 185 254 271 263 249 238 206 194 184 191 188 185 186 188 190 191 194 199 200 202 204 202 201 197 203 206 208 199 200 212 205 201 199 205 206 204 210 203 210 208 210 218 218 216 218
39 37 36 32 36 36 36 37 34 32 27 37 71 99 145 254 187 171 194 188 232 257 247 232 225 188 198 194 188 186 188 190 193 193 195 200 201 203 203 206 201 197 205 205 210 208 197 197 210 206 199 205 205 207 207 209 209 212 217 214 212 216 219
48 41 34 35 34 37 37 34 35 34 29 31 35 47 137 199 218 210 224 247 222 253 281 305 268 179 212 213 195 190 193 194 195 198 197 200 203 204 204 203 204 198 196 207 209 210 210 196 198 206 204 206 208 208 208 210 213 213 220 221 216 212 219
58 52 41 35 35 34 36 34 34 35 32 30 29 20 24 45 148 226 213 231 192 285 272 252 252 246 187 209 209 206 196 198 199 200 201 201 205 205 205 206 204 204 197 197 205 207 211 206 197 198 204 205 210 211 209 209 213 216 216 224 229 222 215
63 59 53 43 34 30 29 29 27 30 30 29 26 21 20 17 13 13 136 142 141 218 254 296 297 290 293 335 244 217 202 207 202 202 204 201 203 211 207 207 209 204 205 196 198 207 210 213 204 196 202 205 208 212 212 209 212 213 217 219 223 224 223
59 55 53 49 44 37 29 27 25 23 24 25 27 25 19 12 7 8 4 72 74 292 235 239 241 235 257 193 240 266 215 214 203 208 205 205 199 204 212 212 210 209 205 205 205 202 210 213 215 205 201 206 207 209 212 213 212 213 211 215 218 225 225
58 57 51 47 44 42 37 30 24 18 18 21 22 21 19 13 6 5 7 18 57 253 291 264 275 289 249 231 204 220 244 224 224 204 201 199 203 198 206 211 211 210 211 209 212 210 207 213 215 217 208 205 206 211 214 216 217 204 203 205 214 216 226
56 52 52 46 41 40 40 35 26 21 17 17 17 16 19 12 8 3 10 13 4 357 345 326 321 293 272 245 234 225 230 225 215 224 207 196 200 201 201 208 211 209 205 207 208 211 207 215 218 218 218 210 209 210 217 220 221 189 186 195 210 220 219
61 50 44 46 41 34 31 34 32 25 18 15 11 13 11 10 6 8 8 5 12 352 342 333 347 348 337 306 276 261 242 233 223 221 226 206 199 199 200 204 210 212 209 210 209 206 211 212 216 222 224 222 218 215 216 220 221 179 182 188 197 207 220
59 56 51 39 40 34 28 25 29 27 21 14 12 8 11 8 4 8 5 6 3 0 360 339 326 322 312 310 336 315 279 252 237 227 227 230 208 199 202 205 207 209 210 210 211 208 207 213 212 214 223 230 230 229 222 221 208 177 184 187 192 199 211
52 55 56 49 40 34 27 24 17 24 18 22 15 7 5 9 10 1 5 5 5 5 5 355 357 339 320 326 334 329 311 293 267 242 232 231 226 208 204 211 209 209 210 210 206 208 208 211 213 213 215 222 229 233 235 233 202 177 182 187 191 197 200
55 53 47 47 45 34 29 20 16 15 9 14 12 11 0 11 9 357 10 8 17 11 360 5 1 3 352 331 326 321 317 310 289 279 262 331 338 305 260 231 219 214 216 212 208 205 208 211 211 211 214 217 219 224 228 229 215 177 186 187 190 196 196
49 45 45 36 33 42 23 23 10 13 2 6 11 5 4 10 4 359 7 11 17 7 7 6 9 1 357 352 348 329 331 337 349 290 282 275 243 284 295 271 252 227 223 225 216 212 209 209 216 214 213 215 218 221 226 231 214 180 186 191 193 193 195
34 39 39 31 26 34 28 21 3 8 352 10 12 5 1 5 4 2 358 6 9 8 14 9 7 0 359 355 342 333 332 329 318 270 220 324 303 276 267 289 290 274 247 234 230 219 213 213 214 217 219 216 216 222 226 230 213 186 185 187 191 183 203
27 29 24 24 16 31 18 15 0 355 354 356 10 2 356 5 2 2 359 0 360 2 15 11 7 2 357 349 346 337 328 320 319 316 273 182 198 208 215 222 227 253 288 260 242 232 228 221 220 217 216 217 219 217 222 228 215 187 189 189 183 187 200
20 20 7 8 8 20 4 357 348 339 347 353 10 347 350 1 358 6 356 359 356 2 6 8 4 2 352 348 342 329 325 317 312 311 298 271 233 226 227 231 240 235 243 275 264 243 238 236 231 226 223 220 219 214 221 228 218 187 192 191 185 193 206
6 12 2 349 15 7 346 329 333 341 343 351 1 330 349 353 359 2 352 353 352 0 358 0 0 351 348 344 338 331 320 318 310 298 300 290 279 258 255 263 257 229 226 261 289 289 269 246 239 235 235 235 229 221 217 226 231 193 193 189 190 193 202
359 3 358 354 9 348 334 339 340 339 328 346 336 332 345 345 351 352 350 344 347 353 352 355 352 349 348 342 332 322 308 311 323 316 310 307 290 290 281 278 260 262 239 235 254 277 268 260 246 240 237 240 242 241 234 231 231 212 184 194 190 194 201
358 350 352 358 344 334 343 336 339 325 324 330 325 337 341 334 341 340 340 336 342 341 344 346 342 344 343 337 331 326 323 327 327 325 321 330 320 309 311 297 292 258 230 219 210 225 242 254 253 246 241 238 240 238 241 248 252 243 186 193 192 194 197
354 350 345 338 335 344 343 336 328 325 326 325 331 336 329 328 331 327 327 328 331 332 333 335 336 336 337 329 325 328 325 323 325 323 319 316 316 315 309 281 274 282 276 252 236 232 225 231 237 240 238 243 250 243 240 239 241 245 236 187 197 196 199
354 344 334 332 335 337 339 326 325 325 322 321 323 322 325 325 320 315 316 315 325 323 324 324 328 328 327 324 322 324 314 314 316 322 322 314 306 297 284 283 276 261 250 253 267 269 252 237 234 239 240 243 245 247 248 240 239 215 219 208 188 198 203
336 334 330 333 330 333 328 325 320 316 314 318 320 322 319 314 307 308 305 312 316 316 315 315 317 323 322 323 322 317 315 315 317 314 291 286 295 297 297 284 277 274 276 268 257 249 258 257 244 237 239 243 246 249 246 246 240 246 205 200 190 193 199
325 330 325 324 323 334 325 313 311 312 313 316 317 311 308 306 305 301 304 308 310 306 302 304 310 316 317 314 312 312 310 304 299 290 291 303 307 302 289 292 288 277 251 268 277 274 267 263 261 255 250 246 246 244 249 250 259 253 245 190 199 198 200
320 320 324 322 325 323 312 314 309 309 311 309 313 313 309 308 305 303 303 297 295 296 301 308 309 304 302 304 308 309 307 302 302 311 309 304 305 306 302 284 271 277 278 266 267 272 274 268 262 262 263 262 255 252 249 248 250 254 247 98 267 204 195
313 315 315 317 315 313 311 305 303 302 305 306 308 307 305 303 301 299 301 302 304 305 305 298 293 295 299 301 302 300 302 302 303 301 294 300 293 286 286 300 299 291 279 277 280 278 272 267 267 257 252 254 258 260 263 260 275 295 357 355 289 283 274
307 308 310 310 312 311 305 306 300 297 295 296 300 302 302 299 299 301 300 297 293 291 290 290 289 288 287 288 286 284 284 284 285 282 294 298 297 291 289 280 272 285 306 310 310 309 307 299 291 292 291 296 308 308 289 298 13 261 254 316 120 209 252
301 303 306 307 304 304 302 299 297 294 293 293 296 296 296 297 296 296 296 295 292 288 285 285 283 280 279 277 276 278 278 280 285 300 298 292 291 297 295 309 333 315 304 299 304 310 307 300 287 292 303 299 292 293 294 300 296 100 103 290 298 286 257
297 300 300 303 301 300 301 301 300 299 294 292 290 289 290 293 296 296 296 295 293 289 283 279 274 274 276 276 272 281 296 296 289 284 286 291 295 294 295 290 276 245 243 249 265 282 288 287 284 285 283 275 285 284 276 290 289 287 282 263 254 256 256
293 296 298 298 298 298 299 298 297 295 295 294 291 289 292 291 292 292 292 292 292 291 285 277 273 271 270 273 276 278 275 277 284 286 281 280 282 286 288 287 288 289 215 211 244 257 266 276 279 279 278 275 261 266 291 286 277 277 285 287 282 268 270